Regional Weather Roundup
Issued by NWS Newport/Morehead, NC

Current Version | Previous Version | Text Only | Print | Product List | Glossary On
Versions: 1 2 3 4 5 6 7 8 9 10 11 12 13 14 15 16 17 18 19 20 21 22 23 24 25 26 27 28 29 30 31 32 33 34 35 36 37 38 39 40 41 42 43 44 45 46 47 48 49 50
000 ASUS42 KMHX 072024 RWRMHX WEATHER ROUNDUP FOR EASTERN NORTH CAROLINA NATIONAL WEATHER SERVICE NEWPORT/MOREHEAD CITY NC 300 PM EST WED DEC 07 2016 NOTE: "FAIR" INDICATES FEW OR NO CLOUDS BELOW 12,000 FEET WITH NO SIGNIFICANT WEATHER AND/OR OBSTRUCTIONS TO VISIBILITY NCZ015>017-031-032-045>047-102-103-072100- NORTH COAST CITY SKY/WX TMP DP RH WIND PRES REMARKS EDENTON MOSUNNY 58 44 59 CALM 30.03R ELIZABETH CITY SUNNY 56 42 59 N12 30.02R KITTY HAWK CLEAR 53 46 79 N10 30.01R MANTEO MOSUNNY 53 44 70 N8 30.03R $$ NCZ045>047-081-094-103-104-072100- CENTRAL COAST CITY SKY/WX TMP DP RH WIND PRES REMARKS FRISCO MOSUNNY 54 45 71 VRB6 30.02R $$ NCZ095-097-098-100-101-072100- SOUTHERN COAST CITY SKY/WX TMP DP RH WIND PRES REMARKS BEAUFORT SUNNY 59 47 64 MISG 30.03R CEDAR ISLAND NOT AVBL JACKSONVILLE MOSUNNY 60 44 55 VRB5 30.02R PINEY ISLAND CLEAR N/A N/A N/A N9 30.03R WILMINGTON SUNNY 62 46 55 CALM 30.02S $$ NCZ011>013-027>030-043-044-078>080-089-090>093-098-072100- COASTAL PLAIN CITY SKY/WX TMP DP RH WIND PRES REMARKS AHOSKIE MOSUNNY 54 41 62 N3 30.03S CLINTON SUNNY 60 46 59 E3 30.03S ELIZABETHTOWN SUNNY 61 46 57 CALM 30.03S GOLDSBORO SUNNY 60 44 55 VRB3 30.01S GREENVILLE SUNNY 57 43 58 N5 30.05R HAVELOCK MOSUNNY 59 45 59 N6 30.04R KENANSVILLE NOT AVBL KINSTON SUNNY 59 43 55 CALM 30.04R NEW BERN SUNNY 58 43 57 NE5 30.04R RICHLANDS SUNNY 59 45 59 VRB3 30.03R ROCKY MOUNT SUNNY 58 43 57 N3 30.03R WASHINGTON SUNNY 58 41 53 N7 30.03R WHITEVILLE SUNNY 61 43 52 CALM 30.02F $$ AMZ130-135-150-152-154-156-158-170-250-252-270-ANZ085-086-088-633-658-670-072100- MARINE OBSERVATIONS STATION/POSITION TIME TEMP WIND PRES WAVE SWELL AIR SEA DIR/SP/G HT/PER HT/PER (UTC) (F) (DEG/KT/KT) (MB) (FT/S) (FT/S) CHESAPEAKE LIGHT NOT AVBL 64 E VA BEACH 1950 52 59 360/ 14/ 17 1015.0 8/10 7/10 DUCK 2000 52 54 360/ 13/ 17 1015.9 2 E DUCK NOT AVBL OREGON INLET 2000 52 55 350/ 9/ 14 1016.5 13E OREGON INLT NOT AVBL HATTERAS CG 2000 53 59 350/ 9/ 11 1016.2 DIAMOND BUOY 1950 56 76 350/ 12/ 16 1016.2 6/ 8 5/ 8 CAPE LOOKOUT 2000 55 30/ 10/ 12 1016.5 BEAUFORT LAB 2000 57 55 360/ 6/ 8 1015.7 30 SE NEW RVR IN 2008 56 71 40/ 8/ 12 1017.1 30 SE NEW RVR IN NOT AVBL 27 SE WRIGHTSVLE 2008 58 67 40/ 8/ 14 1016.6 5 SE WRIGHTSVLE 2008 57 62 90/ 6/ 8 1016.8 225 S CAPE HAT 1950 71 74 320/ 12/ 16 1015.1 7/ 8 7/ 8 41 SE CHARLESTON 1950 62 74 10/ 4/ 6 1016.7 2/ 7 2/ 7 $$

USA.gov is the U.S. government's official web portal to all federal, state and local government web resources and services.